This demonstration page uses our WeatherBlox Daily Observations layout. Learn more.

38.88101, -77.10428

Hourly Observations for June 20, 2016

Temp ( °F °C ) Dew Point ( °F °C ) Humidity (%) Winds ( mph kmh ) Pressure ( in mb ) Visibility ( mi km ) Precip ( " mm )
12:52 am 00:52 Mostly Clear 75 23.9 55 12.8 50 50 SW 9 15 30.25 1025 10 16.0934 0 0
1:52 am 01:52 Mostly Clear 72 22.2 56 13.3 57 57 S 6 9 30.23 1024 10 16.0934 0 0
2:52 am 02:52 Clear 70 21.1 56 13.3 61 61 S 8 13 30.22 1023 10 16.0934 0 0
3:52 am 03:52 Clear 69 20.6 56 13.3 63 63 SSW 6 9 30.22 1023 10 16.0934 0 0
4:52 am 04:52 Mostly Clear 71 21.7 55 12.8 57 57 S 3 6 30.22 1023 10 16.0934 0 0
5:52 am 05:52 Mostly Sunny 69 20.6 55 12.8 61 61 SSW 3 6 30.23 1024 10 16.0934 0 0
6:52 am 06:52 Mostly Sunny 70 21.1 56 13.3 61 61 SW 3 6 30.23 1024 10 16.0934 0 0
7:52 am 07:52 Mostly Sunny 73 22.8 55 12.8 53 53 SSW 5 7 30.22 1023 10 16.0934 0 0
8:52 am 08:52 Mostly Sunny 75 23.9 58 14.4 55 55 S 8 13 30.23 1024 10 16.0934 0 0
9:52 am 09:52 Mostly Sunny 78 25.6 58 14.4 50 50 SSE 6 9 30.22 1023 10 16.0934 0 0
10:52 am 10:52 Mostly Sunny 82 27.8 58 14.4 44 44 E 5 7 30.21 1023 10 16.0934 0 0
11:52 am 11:52 Partly Cloudy 85 29.4 59 15 42 42 E 6 9 30.19 1022 10 16.0934 0 0
12:52 pm 12:52 Mostly Cloudy 87 30.6 55 12.8 34 34 E 5 7 30.15 1021 10 16.0934 0 0
1:52 pm 13:52 Cloudy 88 31.1 56 13.3 34 34 SE 6 9 30.12 1020 10 16.0934 0 0
2:52 pm 14:52 Cloudy 89 31.7 59 15 36 36 S 10 17 30.09 1019 10 16.0934 0 0
3:52 pm 15:52 Mostly Cloudy 89 31.7 60 15.6 38 38 S 12 19 30.06 1018 10 16.0934 0 0
4:52 pm 16:52 Mostly Cloudy 90 32.2 61 16.1 38 38 S 12 19 30.05 1018 10 16.0934 0 0
5:52 pm 17:52 Mostly Cloudy 89 31.7 57 13.9 34 34 W 6 9 30.02 1017 10 16.0934 0 0
6:52 pm 18:52 Mostly Cloudy 87 30.6 60 15.6 40 40 SSW 13 20 30.01 1016 10 16.0934 0 0
7:52 pm 19:52 Mostly Cloudy 86 30 61 16.1 43 43 SSW 13 20 30 1016 10 16.0934 0 0
8:52 pm 20:52 Mostly Cloudy 83 28.3 63 17.2 51 51 SSW 10 17 29.99 1016 10 16.0934 0 0
9:52 pm 21:52 Clear 81 27.2 67 19.4 62 62 S 8 13 29.99 1016 10 16.0934 0 0
10:52 pm 22:52 Mostly Cloudy 79 26.1 67 19.4 67 67 SSW 8 13 29.98 1015 10 16.0934 0 0
11:52 pm 23:52 Mostly Cloudy 79 26.1 64 17.8 60 60 SSW 10 17 29.96 1015 10 16.0934 0 0

Powered by AerisWeather